FW1419 Weather Reports


Display with metric or nautical units.
time (UTC)temp
F
wind
direction
speed
MPH
gust
MPH
rain 1hr
in
rain 24hr
in
rain mn
in
humidity
%
barometer
mb
20190117090337 54 170 0.0 0.0 0.00 0.00 0.00 96 1021.8
20190117085822 54 170 0.0 0.0 0.00 0.00 0.00 96 1021.8
20190117085325 54 170 0.0 0.0 0.00 0.00 0.32 96 1021.8
20190117084829 54 170 0.0 0.0 0.00 0.00 0.32 95 1021.9
20190117084333 54 209 0.0 0.0 0.00 0.00 0.32 95 1021.9
20190117083835 54 209 0.0 0.0 0.00 0.00 0.32 95 1021.9
20190117083320 54 209 0.0 0.0 0.00 0.00 0.32 95 1022.0
20190117082826 54 209 0.0 0.0 0.00 0.00 0.32 95 1022.0
20190117082326 54 209 0.0 0.0 0.00 0.00 0.32 95 1022.0
20190117081827 54 281 0.0 0.0 0.00 0.00 0.32 95 1022.3
20190117081328 54 281 0.0 0.0 0.00 0.00 0.32 95 1022.3
20190117080831 54 281 0.0 0.0 0.00 0.00 0.32 95 1022.3
20190117080333 54 281 0.0 0.0 0.00 0.00 0.32 95 1022.5
20190117075833 54 281 0.0 0.0 0.00 0.00 0.32 95 1022.5
20190117075336 54 281 0.0 0.0 0.00 0.00 0.32 95 1022.5
20190117074822 54 281 0.0 0.0 0.00 0.00 0.32 95 1022.5
20190117074325 54 281 0.0 0.0 0.00 0.00 0.32 95 1022.5
20190117073830 54 281 0.0 0.0 0.01 0.00 0.32 95 1022.5
20190117073331 54 281 0.0 0.0 0.01 0.00 0.32 95 1022.9
20190117072834 54 281 0.0 0.0 0.01 0.00 0.32 94 1022.9
20190117072335 54 281 0.0 0.0 0.01 0.00 0.32 94 1022.9
20190117071837 54 281 0.0 0.0 0.02 0.00 0.32 94 1023.0
20190117071339 54 281 0.0 0.0 0.02 0.00 0.32 94 1023.0
20190117070821 54 281 0.0 0.0 0.02 0.00 0.32 94 1023.0
20190117065828 54 281 0.0 0.0 0.02 0.00 0.32 94 1022.8
20190117065334 54 281 0.0 0.0 0.02 0.00 0.32 93 1022.8
20190117064836 54 281 0.0 0.0 0.02 0.00 0.32 93 1022.7
20190117064338 54 280 0.0 0.0 0.02 0.00 0.32 93 1022.7
20190117063841 54 280 0.0 0.0 0.01 0.00 0.31 92 1022.7
20190117063323 54 280 0.0 0.0 0.01 0.00 0.31 92 1022.9
20190117062827 55 281 0.0 0.0 0.01 0.00 0.31 92 1022.9
20190117062329 55 281 0.0 0.0 0.01 0.00 0.31 91 1022.9
20190117061834 55 280 0.0 0.0 0.00 0.00 0.30 91 1022.9
20190117061337 55 281 0.0 0.0 0.00 0.00 0.30 91 1022.9
20190117060839 55 281 0.0 2.0 0.00 0.00 0.30 90 1022.9
20190117060325 55 280 0.0 2.0 0.00 0.00 0.30 90 1023.1
20190117055831 55 261 0.0 1.0 0.00 0.00 0.30 89 1023.1
20190117055336 55 258 0.0 0.0 0.00 0.00 0.30 89 1023.1
20190117054841 55 259 0.0 0.0 0.00 0.00 0.30 89 1023.1
20190117054323 55 259 0.0 0.0 0.00 0.00 0.30 88 1023.1
20190117053826 55 259 0.0 0.0 0.00 0.00 0.30 88 1023.1
20190117053328 55 231 0.0 0.0 0.00 0.00 0.30 88 1022.8
20190117052831 55 229 0.0 0.0 0.00 0.00 0.30 88 1022.8
20190117052334 56 230 0.0 0.0 0.00 0.00 0.30 88 1022.8
20190117051837 56 182 0.0 2.0 0.00 0.00 0.30 88 1022.8
20190117051339 56 182 0.0 4.0 0.00 0.00 0.30 88 1022.8
20190117050842 56 211 1.0 3.0 0.00 0.00 0.30 87 1022.8
20190117050327 56 259 0.0 1.0 0.00 0.00 0.30 87 1022.6
20190117045829 56 249 0.0 4.0 0.00 0.00 0.30 87 1022.6
20190117045331 56 242 0.0 5.0 0.00 0.00 0.30 87 1022.6
20190117044836 56 212 2.0 5.0 0.00 0.00 0.30 87 1022.6
20190117044339 56 215 0.0 6.0 0.00 0.00 0.30 86 1022.6
20190117043821 56 203 2.0 10.0 0.00 0.00 0.30 86 1022.6
20190117043328 56 213 4.0 13.0 0.00 0.00 0.30 86 1022.6
20190117042829 56 208 6.0 13.0 0.00 0.00 0.30 85 1022.6
20190117042332 56 227 6.0 9.0 0.00 0.00 0.30 85 1022.6
20190117041834 56 152 3.0 7.0 0.00 0.00 0.30 86 1022.7
20190117041336 57 205 2.0 7.0 0.00 0.00 0.30 86 1022.7
20190117040822 57 200 3.0 4.0 0.00 0.00 0.30 86 1022.7
20190117040323 57 196 0.0 0.0 0.00 0.00 0.30 88 1022.6
20190117035825 57 190 0.0 0.0 0.00 0.00 0.30 89 1022.6
20190117035330 57 232 0.0 0.0 0.00 0.00 0.30 90 1022.6
20190117034833 57 169 0.0 0.0 0.00 0.00 0.30 90 1022.6
20190117034335 57 169 0.0 0.0 0.00 0.00 0.30 90 1022.6
20190117033838 57 169 0.0 0.0 0.00 0.00 0.30 90 1022.6
20190117033340 57 169 0.0 0.0 0.00 0.00 0.30 90 1022.5
20190117032822 57 157 0.0 0.0 0.00 0.00 0.30 90 1022.5
20190117031826 57 130 0.0 2.0 0.00 0.00 0.30 90 1022.6
20190117031328 57 182 1.0 3.0 0.00 0.00 0.30 90 1022.6
20190117030834 57 210 1.0 3.0 0.00 0.00 0.30 90 1022.6
20190117030336 57 236 1.0 3.0 0.00 0.00 0.30 90 1022.5
20190117025839 57 234 0.0 2.0 0.00 0.00 0.30 90 1022.5
20190117025341 57 261 0.0 0.0 0.00 0.00 0.30 90 1022.5
20190117024822 57 244 0.0 0.0 0.00 0.00 0.30 90 1022.2
20190117024324 57 252 0.0 0.0 0.00 0.00 0.30 90 1022.2
20190117023825 57 216 0.0 0.0 0.00 0.00 0.30 90 1022.2
20190117023327 57 219 0.0 0.0 0.00 0.00 0.30 90 1022.0
20190117022833 57 237 0.0 0.0 0.00 0.00 0.30 90 1022.0
20190117022335 57 257 0.0 0.0 0.00 0.00 0.30 90 1022.0
20190117021837 57 257 0.0 0.0 0.00 0.00 0.30 90 1021.9
20190117021320 57 263 0.0 0.0 0.00 0.00 0.30 91 1021.9
20190117020825 57 263 0.0 0.0 0.00 0.00 0.30 91 1021.9
20190117020329 57 263 0.0 0.0 0.00 0.00 0.30 91 1021.7
20190117015833 57 263 0.0 0.0 0.00 0.00 0.30 91 1021.7
20190117015334 56 263 0.0 0.0 0.00 0.00 0.30 91 1021.7
20190117014837 56 263 0.0 0.0 0.00 0.00 0.30 91 1021.6
20190117014338 56 263 0.0 0.0 0.00 0.00 0.30 91 1021.6
20190117013823 56 263 0.0 0.0 0.00 0.00 0.30 91 1021.6
20190117013325 56 263 0.0 0.0 0.00 0.00 0.30 90 1021.2
20190117012828 57 263 0.0 0.0 0.00 0.00 0.30 89 1021.2
20190117012330 57 263 0.0 0.0 0.00 0.00 0.30 89 1021.2
20190117011832 57 263 0.0 0.0 0.00 0.00 0.30 88 1021.0
20190117011340 57 263 0.0 0.0 0.00 0.00 0.30 87 1021.0
20190117010822 58 263 0.0 0.0 0.00 0.00 0.30 86 1021.0
20190117010324 58 263 0.0 0.0 0.00 0.00 0.30 85 1021.1
20190117005826 58 263 0.0 0.0 0.00 0.00 0.30 85 1021.1
20190117005328 59 263 0.0 0.0 0.00 0.00 0.30 85 1021.1
20190117004833 59 263 0.0 0.0 0.00 0.00 0.30 85 1021.3
20190117004334 59 263 0.0 0.0 0.00 0.00 0.30 84 1021.3
20190117003837 59 263 0.0 0.0 0.00 0.00 0.30 84 1021.3
20190117003340 59 263 0.0 0.0 0.00 0.00 0.30 83 1021.3
20190117002841 59 263 0.0 0.0 0.00 0.00 0.30 84 1021.3
20190117002323 59 263 0.0 0.0 0.00 0.00 0.30 84 1021.3
20190117001829 60 286 0.0 0.0 0.00 0.00 0.30 84 1021.3
20190117001334 60 286 0.0 0.0 0.00 0.00 0.30 83 1021.3
20190117000836 60 286 0.0 0.0 0.00 0.00 0.30 83 1021.3
20190117000322 60 286 0.0 0.0 0.00 0.00 0.30 83 1021.4
20190116235825 60 286 0.0 0.0 0.00 0.00 0.30 82 1021.4
20190116235328 60 286 0.0 0.0 0.00 0.00 0.30 81 1021.4
20190116234830 60 78 0.0 0.0 0.00 0.00 0.30 82 1021.3
20190116234335 60 78 0.0 0.0 0.00 0.00 0.30 81 1021.3
20190116233838 60 61 0.0 0.0 0.00 0.00 0.30 82 1021.3
20190116233340 60 232 0.0 0.0 0.00 0.00 0.30 82 1021.3
20190116232822 60 232 0.0 0.0 0.00 0.00 0.30 82 1021.3
20190116232328 60 232 0.0 0.0 0.00 0.00 0.30 83 1021.3
20190116231833 60 232 0.0 0.0 0.00 0.00 0.30 82 1021.2
20190116231336 60 49 0.0 0.0 0.00 0.00 0.30 82 1021.2
20190116230839 60 49 0.0 3.0 0.00 0.00 0.30 83 1021.2
20190116230341 60 49 0.0 3.0 0.00 0.00 0.30 82 1021.4
20190116225823 60 35 1.0 2.0 0.00 0.00 0.30 82 1021.4
20190116225326 60 259 0.0 0.0 0.00 0.00 0.30 83 1021.4
20190116224827 60 259 0.0 0.0 0.00 0.00 0.30 83 1021.4
20190116224329 60 259 0.0 0.0 0.00 0.00 0.30 84 1021.4
20190116223833 60 259 0.0 0.0 0.00 0.00 0.30 85 1021.4
20190116223336 60 259 0.0 0.0 0.00 0.00 0.30 85 1021.5
20190116222823 60 294 0.0 0.0 0.00 0.00 0.30 86 1021.5
20190116222328 59 294 0.0 0.0 0.00 0.00 0.30 86 1021.5
20190116221831 60 327 0.0 0.0 0.00 0.00 0.30 86 1021.5
20190116221333 59 341 0.0 3.0 0.00 0.00 0.30 88 1021.5
20190116220836 59 345 1.0 3.0 0.00 0.00 0.30 87 1021.5
20190116220341 59 260 0.0 1.0 0.00 0.00 0.30 87 1021.6
20190116215823 59 259 0.0 2.0 0.00 0.00 0.30 85 1021.6
20190116215326 60 341 1.0 2.0 0.00 0.00 0.30 86 1021.6
20190116214829 60 281 0.0 2.0 0.00 0.00 0.30 87 1021.9
20190116214334 59 263 0.0 2.0 0.00 0.00 0.30 88 1021.9
20190116213837 59 277 0.0 0.0 0.00 0.00 0.30 89 1021.9
20190116213323 59 252 0.0 0.0 0.00 0.00 0.30 89 1021.7
20190116212825 59 263 0.0 0.0 0.01 0.00 0.30 89 1021.7
20190116212327 59 297 0.0 1.0 0.01 0.00 0.30 89 1021.7
20190116211829 59 277 0.0 2.0 0.01 0.00 0.30 89 1021.7
20190116211334 59 261 0.0 2.0 0.01 0.00 0.30 89 1021.7
20190116210837 58 271 0.0 0.0 0.01 0.00 0.30 90 1021.7
20190116210321 58 267 0.0 0.0 0.01 0.00 0.30 91 1021.7
20190116205829 58 265 0.0 0.0 0.01 0.00 0.30 92 1021.7
20190116205332 58 264 0.0 0.0 0.01 0.00 0.30 93 1021.7
20190116204836 57 265 0.0 0.0 0.01 0.00 0.30 92 1022.0
20190116204341 57 271 0.0 3.0 0.01 0.00 0.30 93 1022.0
20190116203829 57 269 0.0 3.0 0.01 0.00 0.30 93 1022.0
20190116203334 57 255 0.0 2.0 0.01 0.00 0.30 93 1022.2
20190116202836 57 218 1.0 4.0 0.00 0.00 0.29 93 1022.2
20190116202339 57 250 2.0 4.0 0.00 0.00 0.29 92 1022.2
20190116201842 57 267 0.0 3.0 0.00 0.00 0.29 92 1022.5
20190116201323 57 248 2.0 4.0 0.00 0.00 0.29 93 1022.5
20190116200825 57 258 1.0 4.0 0.00 0.00 0.29 93 1022.5
20190116200326 57 254 3.0 4.0 0.00 0.00 0.29 92 1022.7
20190116195831 57 263 0.0 4.0 0.00 0.00 0.29 92 1022.7
20190116195333 57 266 0.0 2.0 0.00 0.00 0.29 92 1022.7
20190116194835 57 271 0.0 2.0 0.00 0.00 0.29 91 1022.8
20190116194321 58 280 0.0 3.0 0.00 0.00 0.29 91 1022.8
20190116193825 58 269 2.0 4.0 0.00 0.00 0.29 90 1022.8
20190116193326 58 238 1.0 4.0 0.00 0.00 0.29 89 1023.2
20190116192830 58 246 1.0 4.0 0.00 0.00 0.29 89 1023.2
20190116192330 58 277 2.0 5.0 0.00 0.00 0.29 89 1023.2
20190116191835 58 256 2.0 5.0 0.00 0.00 0.29 88 1023.3
20190116191336 58 232 0.0 0.0 0.00 0.00 0.29 90 1023.3
20190116190838 58 263 0.0 0.0 0.00 0.00 0.29 88 1023.3
20190116190323 59 244 0.0 0.0 0.00 0.00 0.29 89 1023.3
20190116185824 58 281 0.0 0.0 0.00 0.00 0.29 90 1023.3
20190116185326 58 281 0.0 1.0 0.00 0.00 0.29 91 1023.3
20190116184827 57 240 0.0 1.0 0.00 0.00 0.29 93 1023.4
20190116184333 57 259 0.0 1.0 0.00 0.00 0.29 95 1023.4
20190116183834 57 259 0.0 1.0 0.00 0.00 0.29 95 1023.4
20190116183340 56 103 0.0 1.0 0.00 0.00 0.29 96 1022.9
20190116182823 56 103 0.0 3.0 0.00 0.00 0.29 96 1022.9
20190116182325 55 103 1.0 3.0 0.00 0.00 0.29 95 1022.9
20190116181826 55 29 0.0 4.0 0.00 0.00 0.29 96 1022.7
20190116181327 55 33 0.0 4.0 0.00 0.00 0.29 96 1022.7
20190116180833 55 43 0.0 2.0 0.01 0.00 0.29 96 1022.7
20190116180335 55 35 1.0 2.0 0.01 0.00 0.29 96 1023.0
20190116175836 55 355 0.0 0.0 0.00 0.00 0.29 97 1023.0
20190116175338 54 350 0.0 0.0 0.00 0.00 0.29 96 1023.0
20190116174836 54 350 0.0 0.0 0.00 0.00 0.29 97 1022.8
20190116174322 54 350 0.0 0.0 0.00 0.00 0.29 97 1022.8
20190116173823 54 350 0.0 0.0 0.00 0.00 0.29 97 1022.8
20190116173325 54 350 0.0 0.0 0.00 0.00 0.29 97 1022.5
20190116172827 54 350 0.0 0.0 0.00 0.00 0.29 97 1022.5
20190116172329 53 350 0.0 0.0 0.00 0.00 0.29 97 1022.5
20190116171833 53 350 0.0 0.0 0.00 0.00 0.29 97 1022.1
20190116171319 53 350 0.0 0.0 0.00 0.00 0.29 97 1022.1
20190116170826 53 350 0.0 0.0 0.00 0.00 0.28 97 1022.1
20190116170330 53 350 0.0 0.0 0.00 0.00 0.28 97 1022.1
20190116165823 52 350 0.0 0.0 0.08 0.00 0.28 97 1022.1
20190116165325 52 350 0.0 0.0 0.06 0.00 0.26 97 1022.1
20190116164834 53 350 0.0 0.0 0.06 0.00 0.25 97 1021.9
20190116164337 53 230 0.0 0.0 0.06 0.00 0.24 97 1021.9
20190116163839 53 230 0.0 0.0 0.07 0.00 0.24 97 1021.9
20190116163322 52 230 0.0 0.0 0.08 0.00 0.24 97 1021.8
20190116162824 52 230 0.0 0.0 0.09 0.00 0.24 97 1021.8
20190116162326 52 230 0.0 0.0 0.08 0.00 0.23 97 1021.8
20190116161330 52 230 0.0 0.0 0.08 0.00 0.22 97 1021.6
20190116160833 52 231 0.0 0.0 0.08 0.00 0.21 97 1021.6
20190116160336 52 127 0.0 0.0 0.08 0.00 0.21 97 1021.1
20190116155838 52 127 0.0 0.0 0.08 0.00 0.20 97 1021.1
20190116155325 52 127 0.0 1.0 0.08 0.00 0.20 97 1021.1
20190116154830 52 127 0.0 1.0 0.08 0.00 0.19 97 1020.7
20190116154332 52 127 0.0 0.0 0.07 0.00 0.18 97 1020.7
20190116153834 52 127 0.0 0.0 0.06 0.00 0.17 97 1020.7
20190116153336 52 127 0.0 0.0 0.05 0.00 0.16 97 1020.7
20190116152838 51 127 0.0 0.0 0.04 0.00 0.15 97 1020.7
20190116152322 51 127 0.0 0.0 0.04 0.00 0.15 97 1020.7
20190116151822 51 128 0.0 0.0 0.03 0.00 0.14 97 1020.6
20190116151324 51 127 0.0 0.0 0.03 0.00 0.14 97 1020.6
20190116150825 51 127 0.0 0.0 0.02 0.00 0.13 97 1020.6
20190116150327 51 127 0.0 0.0 0.02 0.00 0.13 97 1020.6
20190116145829 51 127 0.0 0.0 0.01 0.00 0.12 97 1020.6
20190116145335 51 127 0.0 0.0 0.01 0.00 0.12 97 1020.6
20190116144837 51 127 0.0 0.0 0.00 0.00 0.11 97 1020.6
20190116144340 51 127 0.0 0.0 0.00 0.00 0.11 97 1020.6
20190116143840 51 127 0.0 0.0 0.00 0.00 0.11 97 1020.6
20190116143341 51 127 0.0 0.0 0.00 0.00 0.11 97 1020.6
20190116142823 51 127 0.0 0.0 0.00 0.00 0.11 96 1020.6
20190116142328 51 127 0.0 0.0 0.00 0.00 0.11 97 1020.6
20190116141829 50 140 0.0 0.0 0.00 0.00 0.11 97 1020.7
20190116141330 50 171 0.0 0.0 0.00 0.00 0.11 96 1020.7
20190116140831 50 171 0.0 2.0 0.00 0.00 0.11 96 1020.7
20190116140333 50 150 0.0 2.0 0.00 0.00 0.11 96 1020.5
20190116135819 50 47 0.0 0.0 0.00 0.00 0.11 97 1020.5
20190116135324 50 47 0.0 1.0 0.00 0.00 0.11 96 1020.5
20190116134824 50 47 0.0 3.0 0.00 0.00 0.11 96 1020.4
20190116134327 50 40 2.0 3.0 0.00 0.00 0.11 96 1020.4
20190116133828 50 220 0.0 0.0 0.01 0.00 0.11 96 1020.4
20190116133330 50 220 0.0 0.0 0.01 0.00 0.11 96 1020.1
20190116132832 50 220 0.0 0.0 0.01 0.00 0.11 96 1020.1
20190116132333 50 220 0.0 0.0 0.01 0.00 0.11 96 1020.1
20190116131834 50 220 0.0 0.0 0.01 0.00 0.11 96 1020.0
20190116131335 50 220 0.0 0.0 0.01 0.00 0.11 96 1020.0
20190116130837 50 220 0.0 0.0 0.01 0.00 0.11 96 1020.0
20190116130318 50 220 0.0 0.0 0.01 0.00 0.11 96 1019.6
20190116125827 50 220 0.0 0.0 0.01 0.00 0.11 96 1019.6
20190116125330 50 220 0.0 0.0 0.01 0.00 0.11 96 1019.6
20190116124832 50 220 0.0 0.0 0.01 0.00 0.11 96 1019.5
20190116124334 50 220 0.0 0.0 0.02 0.00 0.11 96 1019.5
20190116123838 50 220 0.0 0.0 0.01 0.00 0.10 96 1019.5
20190116123340 50 220 0.0 0.0 0.02 0.00 0.10 96 1019.6
20190116122840 50 220 0.0 0.0 0.02 0.00 0.10 96 1019.6
20190116122324 50 220 0.0 0.0 0.02 0.00 0.10 96 1019.6
20190116121825 50 220 0.0 0.0 0.02 0.00 0.10 96 1019.6
20190116121326 50 220 0.0 0.0 0.03 0.00 0.10 96 1019.6
20190116120827 50 220 0.0 0.0 0.03 0.00 0.10 96 1019.6
20190116120330 50 220 0.0 0.0 0.03 0.00 0.10 96 1019.6
20190116115836 50 220 0.0 0.0 0.03 0.00 0.10 96 1019.6
20190116115318 50 220 0.0 0.0 0.04 0.00 0.10 96 1019.6
20190116114823 50 220 0.0 0.0 0.04 0.00 0.10 96 1019.8
20190116114323 50 220 0.0 1.0 0.03 0.00 0.09 96 1019.8
20190116113824 50 227 0.0 1.0 0.03 0.00 0.09 96 1019.8
20190116113325 50 224 0.0 0.0 0.02 0.00 0.08 96 1019.8
20190116112827 50 224 0.0 0.0 0.02 0.00 0.08 96 1019.8
20190116112328 50 67 0.0 0.0 0.02 0.00 0.08 96 1019.8
20190116111832 50 67 0.0 0.0 0.02 0.00 0.08 96 1019.8
20190116111332 50 67 0.0 0.0 0.01 0.00 0.07 96 1019.8
20190116110834 50 67 0.0 0.0 0.01 0.00 0.07 96 1019.8
20190116110322 50 67 0.0 0.0 0.01 0.00 0.07 96 1019.8
20190116105824 50 67 0.0 0.0 0.01 0.00 0.07 96 1019.8
20190116105326 49 66 0.0 0.0 0.00 0.00 0.06 96 1019.8
20190116104830 49 66 0.0 0.0 0.00 0.00 0.06 96 1019.9
20190116104332 49 66 0.0 0.0 0.00 0.00 0.06 96 1019.9
20190116103832 49 66 0.0 0.0 0.00 0.00 0.06 96 1019.9
20190116103334 49 66 0.0 0.0 0.01 0.00 0.06 96 1020.0
20190116102836 49 66 0.0 0.0 0.01 0.00 0.06 96 1020.0
20190116102337 49 66 0.0 0.0 0.01 0.00 0.06 96 1020.0
20190116101839 50 66 0.0 0.0 0.01 0.00 0.06 96 1019.9
20190116101340 49 66 0.0 0.0 0.02 0.00 0.06 96 1019.9
20190116100822 49 66 0.0 0.0 0.03 0.00 0.06 96 1019.9
20190116100328 49 66 0.0 0.0 0.04 0.00 0.06 96 1019.9
20190116095829 49 66 0.0 0.0 0.05 0.00 0.06 96 1019.9
20190116095331 49 66 0.0 0.0 0.06 0.00 0.06 96 1019.9
20190116094833 49 66 0.0 0.0 0.06 0.00 0.06 96 1019.9
20190116094335 49 66 0.0 0.0 0.06 0.00 0.06 96 1019.9
20190116093836 49 109 0.0 0.0 0.06 0.00 0.06 95 1019.9
20190116093340 49 109 0.0 0.0 0.05 0.00 0.05 95 1020.0
20190116092840 49 109 0.0 0.0 0.06 0.00 0.05 95 1020.0
20190116092342 49 108 0.0 0.0 0.06 0.00 0.05 95 1020.0
20190116091823 49 108 0.0 0.0 0.07 0.00 0.05 95 1019.9
20190116091325 49 109 0.0 0.0 0.06 0.00 0.04 95 1019.9
20190116090827 49 108 0.0 0.0 0.05 0.00 0.03 95 1019.9